FW7134 Weather Reports


Display with metric or nautical units.
time (UTC)temp
F
wind
direction
speed
MPH
gust
MPH
rain 1hr
in
rain 24hr
in
rain mn
in
humidity
%
barometer
mb
20260505001527 52 247 13.0 25.0 0.00 0.56 0.04 100 1003.4
20260505000026 52 244 13.0 23.0 0.00 0.56 0.04 100 1003.3
20260504234530 52 244 10.0 25.0 0.00 0.65 0.04 100 1003.0
20260504233024 52 247 14.0 20.0 0.00 0.65 0.04 100 1002.8
20260504231536 51 242 11.0 17.0 0.00 0.65 0.04 100 1002.7
20260504230022 50 251 8.0 17.0 0.00 0.65 0.04 100 1002.5
20260504224522 50 268 10.0 19.0 0.00 0.68 0.04 100 1002.6
20260504223021 52 245 13.0 38.0 0.00 0.68 0.04 100 1002.5
20260504221519 54 242 15.0 28.0 0.00 0.68 0.04 58 1002.2
20260504220018 55 257 15.0 22.0 0.00 0.68 0.04 60 1002.0
20260504214519 56 238 15.0 32.0 0.00 0.69 0.04 60 1002.1
20260504213015 57 257 15.0 29.0 0.00 0.69 0.04 69 1002.0
20260504211514 57 243 16.0 29.0 0.00 0.69 0.04 72 1002.1
20260504210014 57 250 18.0 27.0 0.00 0.69 0.04 74 1001.8
20260504204507 57 269 16.0 24.0 0.00 0.69 0.04 70 1001.7
20260504203003 56 237 15.0 25.0 0.00 0.69 0.04 86 1001.3
20260504201602 56 243 15.0 24.0 0.00 0.69 0.04 86 1001.2
20260504200059 56 219 16.0 31.0 0.00 0.69 0.04 100 1000.8
20260504194556 55 253 18.0 32.0 0.00 0.69 0.04 100 1000.8
20260504193052 55 242 18.0 24.0 0.00 0.69 0.04 100 1000.6
20260504191547 55 244 13.0 25.0 0.00 0.69 0.04 100 1000.6
20260504190055 55 259 10.0 26.0 0.00 0.69 0.04 100 1000.4
20260504184558 54 254 12.0 25.0 0.00 0.69 0.04 100 1000.2
20260504183041 54 238 13.0 31.0 0.00 0.69 0.04 100 999.8
20260504181538 53 274 11.0 29.0 0.00 0.69 0.04 100 999.9
20260504180034 54 259 12.0 33.0 0.00 0.69 0.04 100 999.9
20260504174533 54 245 15.0 27.0 0.00 0.69 0.04 100 999.6
20260504173031 53 279 20.0 33.0 0.00 0.69 0.04 100 999.4
20260504171538 52 259 19.0 30.0 0.00 0.69 0.04 100 999.5
20260504044540 39 281 4.0 11.0 0.01 0.55 0.03 100 977.2
20260504043030 40 305 1.0 9.0 0.01 0.55 0.03 100 976.7
20260504041531 40 309 1.0 5.0 0.02 0.55 0.03 100 976.5
20260504040027 40 344 3.0 8.0 0.02 0.54 0.02 100 976.3
20260504034525 40 320 2.0 5.0 0.03 0.54 0.02 100 976.2
20260504033025 40 337 3.0 8.0 0.03 0.54 0.02 100 976.0
20260504031522 39 336 2.0 5.0 0.02 0.53 0.01 100 976.1
20260504030028 39 74 0.0 3.0 0.02 0.52 0.52 100 976.2
20260504024517 39 48 1.0 11.0 0.02 0.51 0.51 100 976.5
20260504023016 40 64 4.0 12.0 0.02 0.51 0.51 100 976.6
20260504021514 40 49 3.0 15.0 0.02 0.51 0.51 100 976.8
20260504020016 40 88 7.0 15.0 0.02 0.50 0.50 100 977.1
20260504014507 41 82 8.0 16.0 0.01 0.49 0.49 100 977.6
20260504013009 41 68 9.0 20.0 0.01 0.49 0.49 100 977.7
20260504011505 41 92 12.0 21.0 0.01 0.49 0.49 100 978.4
20260504010002 40 84 9.0 18.0 0.00 0.48 0.48 100 979.3
20260504004558 40 83 5.0 15.0 0.00 0.48 0.48 100 980.0
20260504003100 40 67 7.0 17.0 0.00 0.48 0.48 100 980.6